Lakeland Region, FL

10:02 AM EDT on April 25, 2017 (GMT -0400)
Lakeland Linder Regional

Weather History for KLAL - December, 2013

Change the Weather History Date:

Saturday, December 7, 2013

  Actual Average Record
Temperature  
Mean Temperature 73 °F -  
Max Temperature 84 °F 72 °F 84 °F (2013)
Min Temperature 62 °F 55 °F 33 °F (2010)
Cooling Degree Days 8    
Growing Degree Days 23 (Base 50)    
Moisture  
Dew Point 63 °F    
Average Humidity 82    
Maximum Humidity 100    
Minimum Humidity 39    
Precipitation  
Precipitation 0.00 in - - ()
Sea Level Pressure  
Sea Level Pressure 30.20 in    
Wind  
Wind Speed 1 mph (SE)    
Max Wind Speed 7 mph    
Max Gust Speed -    
Visibility 11 miles    
Events      
Averages and records for this station are not official NWS values.
T = Trace of Precipitation, MM = Missing Value Source: NWS Daily Summary

Daily Weather History Graph

Daily Weather History Graph

Search for Another Location

Airport or City:

Trip Planner

Search our weather history database for the weather conditions in past years. The results will help you decide how hot, cold, wet, or windy it might be!

Date:

Astronomy

Dec. 07, 2013 Rise Set
Actual Time 7:06 AM EST 5:32 PM EST
Civil Twilight 6:41 AM EST 5:58 PM EST
Nautical Twilight 6:11 AM EST 6:27 PM EST
Astronomical Twilight 5:43 AM EST 6:55 PM EST
Moon 11:08 AM EST (12/7) 10:53 PM EST (12/7)
Length of Visible Light 11h 17m
Length of Day
10h 25m
Waxing Crescent, 29% of the Moon is Illuminated
Dec 7
Waxing Crescent
Dec 9
First Quarter
Dec 17
Full
Dec 25
Last Quarter
Jan 1
New

Hourly Weather History & Observations

Time (EST) Temp. Heat Index Dew Point Humidity Pressure Visibility Wind Dir Wind Speed Gust Speed Precip Events Conditions
12:15 AM 68.0 °F - 64.4 °F 88% 30.20 in 10.0 mi Calm Calm - N/A   Clear
12:35 AM 68.0 °F - 66.2 °F 94% 30.19 in 10.0 mi Calm Calm - N/A   Mostly Cloudy
12:55 AM 68.0 °F - 64.4 °F 88% 30.19 in 10.0 mi Calm Calm - N/A   Scattered Clouds
1:15 AM 66.2 °F - 64.4 °F 94% 30.19 in 10.0 mi Calm Calm - N/A   Clear
1:35 AM 66.2 °F - 64.4 °F 94% 30.19 in 10.0 mi Calm Calm - N/A   Clear
1:55 AM 66.2 °F - 64.4 °F 94% 30.19 in 10.0 mi SE 3.5 mph - N/A   Clear
2:15 AM 64.4 °F - 64.4 °F 100% 30.19 in 10.0 mi Calm Calm - N/A   Clear
2:35 AM 64.4 °F - 64.4 °F 100% 30.18 in 10.0 mi Calm Calm - N/A   Clear
2:55 AM 64.4 °F - 62.6 °F 94% 30.18 in 7.0 mi Calm Calm - N/A   Clear
3:15 AM 64.4 °F - 64.4 °F 100% 30.18 in 10.0 mi Calm Calm - N/A   Clear
3:35 AM 64.4 °F - 64.4 °F 100% 30.18 in 7.0 mi Calm Calm - N/A   Clear
3:55 AM 62.6 °F - 62.6 °F 100% 30.18 in 10.0 mi Calm Calm - N/A   Clear
4:15 AM 64.4 °F - 62.6 °F 94% 30.19 in 10.0 mi Calm Calm - N/A   Clear
4:35 AM 62.6 °F - 62.6 °F 100% 30.19 in 7.0 mi Calm Calm - N/A   Clear
4:55 AM 64.4 °F - 62.6 °F 94% 30.18 in 10.0 mi SE 3.5 mph - N/A   Scattered Clouds
5:15 AM 62.6 °F - 62.6 °F 100% 30.18 in 10.0 mi SSE 3.5 mph - N/A   Scattered Clouds
5:35 AM 62.6 °F - 62.6 °F 100% 30.19 in 10.0 mi Calm Calm - N/A   Clear
5:55 AM 64.4 °F - 64.4 °F 100% 30.19 in 7.0 mi Calm Calm - N/A   Partly Cloudy
6:55 AM 64.4 °F - 64.4 °F 100% 30.21 in 8.0 mi Calm Calm - N/A   Partly Cloudy
7:52 AM 64.4 °F - 62.6 °F 94% 30.24 in 10.0 mi Calm Calm - N/A   Partly Cloudy
8:53 AM 71.6 °F - 68.0 °F 88% 30.25 in 10.0 mi Variable 3.5 mph - N/A   Partly Cloudy
10:50 AM 78.8 °F - 62.6 °F 57% 30.25 in 15.0 mi North - - N/A   Partly Cloudy
12:50 PM 82.4 °F 82.5 °F 59.0 °F 45% 30.21 in 20.0 mi North - - N/A   Partly Cloudy
1:52 PM 82.4 °F 82.0 °F 57.2 °F 42% 30.18 in 20.0 mi South 5.8 mph - N/A   Partly Cloudy
2:52 PM 84.2 °F 83.5 °F 57.2 °F 40% 30.16 in 20.0 mi South 3.5 mph - N/A   Partly Cloudy
3:50 PM 82.4 °F 81.7 °F 55.4 °F 39% 30.16 in 20.0 mi Variable 3.5 mph - N/A   Partly Cloudy
4:50 PM 82.4 °F 81.7 °F 55.4 °F 39% 30.16 in 20.0 mi Variable 3.5 mph - N/A   Partly Cloudy
5:50 PM 78.8 °F - 60.8 °F 54% 30.17 in 20.0 mi Variable 3.5 mph - N/A   Clear
6:50 PM 73.4 °F - 60.8 °F 65% 30.18 in 10.0 mi Calm Calm - N/A   Clear
7:50 PM 71.6 °F - 62.6 °F 73% 30.19 in 10.0 mi Calm Calm - N/A   Clear
8:50 PM 69.8 °F - 62.6 °F 78% 30.21 in 10.0 mi ESE 4.6 mph - N/A   Clear
9:50 PM 69.8 °F - 62.6 °F 78% 30.21 in 10.0 mi ESE 6.9 mph - N/A   Clear
9:55 PM 69.8 °F - 62.6 °F 78% 30.22 in 10.0 mi ESE 5.8 mph - N/A   Clear
10:15 PM 68.0 °F - 62.6 °F 83% 30.22 in 10.0 mi ESE 5.8 mph - N/A   Clear
10:35 PM 68.0 °F - 62.6 °F 83% 30.22 in 10.0 mi ESE 6.9 mph - N/A   Clear
10:55 PM 68.0 °F - 62.6 °F 83% 30.22 in 10.0 mi East 4.6 mph - N/A   Clear
11:15 PM 68.0 °F - 62.6 °F 83% 30.22 in 10.0 mi East 6.9 mph - N/A   Clear
11:35 PM 68.0 °F - 62.6 °F 83% 30.22 in 10.0 mi Calm Calm - N/A   Clear
11:55 PM 68.0 °F - 62.6 °F 83% 30.22 in 10.0 mi Calm Calm - N/A   Clear